カタログに戻る

XINGSHIDAI-15

運用中科学SSO
NORAD 61231·PAYLOAD·🇨🇳 China
この衛星名は、まだ公式ソースで確認されていません。

打ち上げ Sep 24, 2024 から Yellow Sea Launch Area

Loading…

次のパス (今後24時間)

TLE

最新Source: Space-Track

元期: Sep 14, 2026, 22:32 UTC

1 61231U 24173E   26257.93905748  .00001021  00000-0  51766-4 0  9990
2 61231  97.4123 328.4216 0001630  90.5514 269.5907 15.19160723109385

AllMySatでXINGSHIDAI-15をリアルタイム追跡

Download on the App Store